Back to catalog

OV1-9

AliveMilitaryPO
NORAD 2610·PAYLOAD·🇺🇸 United States

Launched Dec 11, 1966 from Vandenberg Space Force Base

Loading…

Next Passes (next 24 hours)

TLE

FreshSource: Space-Track

Epoch: Sep 14, 2026, 07:56 UTC

1 02610U 66111A   26257.33095597  .00000474  00000-0  20023-3 0  9992
2 02610  99.1108  25.2946 2271364 240.7957  94.7283 10.39947890242300

Track OV1-9 in real time with AllMySat

Download on the App Store